Location: Seven Kings
(51.5667°N, 0.1000°E)
Time: 02:51:24
(UTC+00:00)

Cosmos 1825 Rocket - Pass Details

Date: 29 October 2020
Orbit: 603 x 631 km, 82.5° (Epoch: 27 November)

Event Time Altitude Azimuth Distance (km) Brightness Sun altitude
Rises 17:06:20 0° 349° (N) 2,932 7.0 -5.1°
Reaches altitude 10° 17:08:36 10° 351° (N) 2,016 6.1 -5.5°
Maximum altitude 17:13:05 84° 79° (E) 635 3.6 -6.1°
Drops below altitude 10° 17:17:29 10° 169° (SSE) 1,983 6.2 -6.8°
Sets 17:19:41 0° 170° (S) 2,880 7.0 -7.1°
